Time,TemperatureF,DewpointF,PressureIn,WindDirection,WindDirectionDegrees,WindSpeedMPH,WindSpeedGustMPH,Humidity,HourlyPrecipIn,Conditions,Clouds,dailyrainin,SoftwareType,DateUTC
2013-02-09 00:14:00,29.6,29.0,29.65,West,277,7.0,-999.0,97,-99.99,,,0.00,weatherlink.com 1.10,2013-02-09 05:14:00,
2013-02-09 00:29:00,29.4,29.0,29.66,NW,316,7.0,-999.0,97,-99.99,,,0.00,weatherlink.com 1.10,2013-02-09 05:29:00,
2013-02-09 00:44:00,28.8,28.0,29.67,NW,308,16.0,-999.0,97,-99.99,,,0.00,weatherlink.com 1.10,2013-02-09 05:44:00,
2013-02-09 00:59:00,28.5,28.0,29.67,NNW,327,20.0,-999.0,97,-99.99,,,0.00,weatherlink.com 1.10,2013-02-09 05:59:00,
2013-02-09 01:14:00,28.4,28.0,29.67,North,355,14.0,-999.0,97,-99.99,,,0.00,weatherlink.com 1.10,2013-02-09 06:14:00,
2013-02-09 01:29:00,28.3,28.0,29.68,NW,319,8.0,-999.0,97,-99.99,,,0.00,weatherlink.com 1.10,2013-02-09 06:29:00,
2013-02-09 01:44:00,28.4,28.0,29.67,NW,319,6.0,-999.0,97,-99.99,,,0.00,weatherlink.com 1.10,2013-02-09 06:44:00,
2013-02-09 01:59:00,28.6,28.0,29.67,NW,319,8.0,-999.0,97,-99.99,,,0.00,weatherlink.com 1.10,2013-02-09 06:59:00,
2013-02-09 02:14:00,28.9,28.0,29.67,NW,321,4.0,-999.0,97,-99.99,,,0.00,weatherlink.com 1.10,2013-02-09 07:14:00,
2013-02-09 02:29:00,28.9,28.0,29.69,WNW,298,6.0,-999.0,97,-99.99,,,0.00,weatherlink.com 1.10,2013-02-09 07:29:00,
2013-02-09 02:44:00,29.0,28.0,29.69,WSW,250,4.0,-999.0,97,-99.99,,,0.00,weatherlink.com 1.10,2013-02-09 07:44:00,
2013-02-09 02:59:00,29.2,29.0,29.69,NW,304,5.0,-999.0,97,-99.99,,,0.00,weatherlink.com 1.10,2013-02-09 07:59:00,
2013-02-09 03:14:00,29.4,29.0,29.69,NW,309,12.0,-999.0,97,-99.99,,,0.00,weatherlink.com 1.10,2013-02-09 08:14:00,
2013-02-09 03:29:00,29.7,29.0,29.70,NNW,336,5.0,-999.0,97,-99.99,,,0.00,weatherlink.com 1.10,2013-02-09 08:29:00,
2013-02-09 03:44:00,29.8,29.0,29.70,NNW,343,1.0,-999.0,98,-99.99,,,0.00,weatherlink.com 1.10,2013-02-09 08:44:00,
2013-02-09 03:59:00,29.9,29.0,29.70,NNW,331,2.0,-999.0,98,-99.99,,,0.00,weatherlink.com 1.10,2013-02-09 08:59:00,
2013-02-09 04:14:00,30.0,29.0,29.71,WNW,289,6.0,-999.0,97,-99.99,,,0.00,weatherlink.com 1.10,2013-02-09 09:14:00,
2013-02-09 04:29:00,30.2,30.0,29.71,WNW,298,2.0,-999.0,98,-99.99,,,0.00,weatherlink.com 1.10,2013-02-09 09:29:00,
2013-02-09 04:44:00,30.5,30.0,29.72,West,271,5.0,-999.0,98,-99.99,,,0.00,weatherlink.com 1.10,2013-02-09 09:44:00,
2013-02-09 04:59:00,30.6,30.0,29.73,West,272,9.0,-999.0,98,-99.99,,,0.00,weatherlink.com 1.10,2013-02-09 09:59:00,
2013-02-09 05:14:00,30.6,30.0,29.73,WNW,292,6.0,-999.0,98,-99.99,,,0.00,weatherlink.com 1.10,2013-02-09 10:14:00,
2013-02-09 05:29:00,30.0,29.0,29.74,SW,236,11.0,-999.0,97,-99.99,,,0.00,weatherlink.com 1.10,2013-02-09 10:29:00,
2013-02-09 05:44:00,28.8,28.0,29.75,NW,312,6.0,-999.0,97,-99.99,,,0.00,weatherlink.com 1.10,2013-02-09 10:44:00,
2013-02-09 05:59:00,28.0,27.0,29.76,West,276,11.0,-999.0,97,-99.99,,,0.00,weatherlink.com 1.10,2013-02-09 10:59:00,
2013-02-09 06:14:00,27.7,27.0,29.77,West,263,10.0,-999.0,97,-99.99,,,0.00,weatherlink.com 1.10,2013-02-09 11:14:00,
2013-02-09 06:29:00,27.4,27.0,29.78,NW,311,7.0,-999.0,97,-99.99,,,0.00,weatherlink.com 1.10,2013-02-09 11:29:00,
2013-02-09 06:44:00,27.2,26.0,29.79,West,263,2.0,-999.0,96,-99.99,,,0.00,weatherlink.com 1.10,2013-02-09 11:44:00,
2013-02-09 06:59:00,27.1,26.0,29.80,WNW,290,6.0,-999.0,96,-99.99,,,0.00,weatherlink.com 1.10,2013-02-09 11:59:00,
2013-02-09 07:14:00,27.0,26.0,29.80,WNW,286,6.0,-999.0,95,-99.99,,,0.00,weatherlink.com 1.10,2013-02-09 12:14:00,
2013-02-09 07:29:00,27.0,26.0,29.82,WSW,257,12.0,-999.0,95,-99.99,,,0.00,weatherlink.com 1.10,2013-02-09 12:29:00,
2013-02-09 07:44:00,26.8,26.0,29.82,WSW,257,10.0,-999.0,95,-99.99,,,0.00,weatherlink.com 1.10,2013-02-09 12:44:00,
2013-02-09 07:59:00,26.7,25.0,29.83,West,259,15.0,-999.0,94,-99.99,,,0.00,weatherlink.com 1.10,2013-02-09 12:59:00,
2013-02-09 08:14:00,26.6,25.0,29.84,WSW,246,10.0,-999.0,94,-99.99,,,0.00,weatherlink.com 1.10,2013-02-09 13:14:00,
2013-02-09 08:29:00,26.6,25.0,29.84,WNW,297,18.0,-999.0,93,-99.99,,,0.00,weatherlink.com 1.10,2013-02-09 13:29:00,
2013-02-09 08:44:00,26.6,25.0,29.84,WNW,292,14.0,-999.0,93,-99.99,,,0.00,weatherlink.com 1.10,2013-02-09 13:44:00,
2013-02-09 08:59:00,26.6,25.0,29.85,North,350,6.0,-999.0,93,-99.99,,,0.00,weatherlink.com 1.10,2013-02-09 13:59:00,
2013-02-09 09:14:00,26.8,25.0,29.85,WNW,300,14.0,-999.0,93,-99.99,,,0.00,weatherlink.com 1.10,2013-02-09 14:14:00,
2013-02-09 09:29:00,26.9,25.0,29.86,WNW,300,9.0,-999.0,93,-99.99,,,0.00,weatherlink.com 1.10,2013-02-09 14:29:00,
2013-02-09 09:44:00,27.1,25.0,29.87,NW,316,7.0,-999.0,93,-99.99,,,0.00,weatherlink.com 1.10,2013-02-09 14:44:00,
2013-02-09 09:59:00,27.5,26.0,29.89,West,262,11.0,-999.0,92,-99.99,,,0.00,weatherlink.com 1.10,2013-02-09 14:59:00,
2013-02-09 10:14:00,27.9,26.0,29.90,WNW,288,4.0,-999.0,93,-99.99,,,0.00,weatherlink.com 1.10,2013-02-09 15:14:00,
2013-02-09 10:29:00,28.2,27.0,29.91,West,281,18.0,-999.0,93,-99.99,,,0.00,weatherlink.com 1.10,2013-02-09 15:29:00,
2013-02-09 10:44:00,28.9,27.0,29.92,West,274,12.0,-999.0,92,-99.99,,,0.00,weatherlink.com 1.10,2013-02-09 15:44:00,
2013-02-09 10:59:00,28.8,27.0,29.91,West,259,7.0,-999.0,91,-99.99,,,0.00,weatherlink.com 1.10,2013-02-09 15:59:00,
2013-02-09 11:14:00,29.1,27.0,29.93,NW,311,9.0,-999.0,91,-99.99,,,0.00,weatherlink.com 1.10,2013-02-09 16:14:00,
2013-02-09 11:29:00,29.2,27.0,29.92,NNW,331,6.0,-999.0,90,-99.99,,,0.00,weatherlink.com 1.10,2013-02-09 16:29:00,
2013-02-09 11:44:00,29.5,26.0,29.93,WNW,302,8.0,-999.0,87,-99.99,,,0.00,weatherlink.com 1.10,2013-02-09 16:44:00,
2013-02-09 11:59:00,29.8,26.0,29.92,WNW,288,8.0,-999.0,86,-99.99,,,0.00,weatherlink.com 1.10,2013-02-09 16:59:00,
2013-02-09 12:14:00,30.1,25.0,29.93,NW,322,9.0,-999.0,82,-99.99,,,0.00,weatherlink.com 1.10,2013-02-09 17:14:00,
2013-02-09 12:29:00,30.7,25.0,29.94,NW,319,12.0,-999.0,80,-99.99,,,0.00,weatherlink.com 1.10,2013-02-09 17:29:00,
2013-02-09 12:44:00,31.1,25.0,29.94,West,273,9.0,-999.0,78,-99.99,,,0.02,weatherlink.com 1.10,2013-02-09 17:44:00,
2013-02-09 12:59:00,31.5,25.0,29.95,WNW,301,21.0,-999.0,77,-99.99,,,0.02,weatherlink.com 1.10,2013-02-09 17:59:00,
2013-02-09 13:14:00,31.7,24.0,29.95,West,277,14.0,-999.0,73,-99.99,,,0.03,weatherlink.com 1.10,2013-02-09 18:14:00,
2013-02-09 13:29:00,32.0,24.0,29.96,WSW,240,10.0,-999.0,72,-99.99,,,0.04,weatherlink.com 1.10,2013-02-09 18:29:00,
2013-02-09 13:44:00,32.4,25.0,29.95,NNW,333,7.0,-999.0,73,-99.99,,,0.04,weatherlink.com 1.10,2013-02-09 18:44:00,
2013-02-09 13:59:00,32.4,23.0,29.96,NW,319,11.0,-999.0,69,-99.99,,,0.05,weatherlink.com 1.10,2013-02-09 18:59:00,
2013-02-09 14:14:00,32.8,23.0,29.97,WNW,292,18.0,-999.0,66,-99.99,,,0.05,weatherlink.com 1.10,2013-02-09 19:14:00,
2013-02-09 14:29:00,33.3,23.0,29.97,West,272,16.0,-999.0,65,-99.99,,,0.05,weatherlink.com 1.10,2013-02-09 19:29:00,
2013-02-09 14:44:00,33.8,23.0,29.96,WNW,290,7.0,-999.0,65,-99.99,,,0.06,weatherlink.com 1.10,2013-02-09 19:44:00,
2013-02-09 14:59:00,33.5,20.0,29.97,WSW,248,19.0,-999.0,59,-99.99,,,0.06,weatherlink.com 1.10,2013-02-09 19:59:00,
2013-02-09 15:14:00,33.7,19.0,29.98,WNW,286,11.0,-999.0,56,-99.99,,,0.06,weatherlink.com 1.10,2013-02-09 20:14:00,
2013-02-09 15:29:00,33.9,19.0,29.98,WNW,289,13.0,-999.0,55,-99.99,,,0.06,weatherlink.com 1.10,2013-02-09 20:29:00,
2013-02-09 15:44:00,33.9,17.0,29.99,WNW,282,9.0,-999.0,50,-99.99,,,0.06,weatherlink.com 1.10,2013-02-09 20:44:00,
2013-02-09 15:59:00,33.9,16.0,30.00,West,270,14.0,-999.0,49,-99.99,,,0.06,weatherlink.com 1.10,2013-02-09 20:59:00,
2013-02-09 16:14:00,33.8,16.0,30.01,WNW,286,14.0,-999.0,48,-99.99,,,0.06,weatherlink.com 1.10,2013-02-09 21:14:00,
2013-02-09 16:29:00,33.6,15.0,30.02,West,261,14.0,-999.0,47,-99.99,,,0.06,weatherlink.com 1.10,2013-02-09 21:29:00,
2013-02-09 16:44:00,33.3,15.0,30.03,West,261,5.0,-999.0,47,-99.99,,,0.06,weatherlink.com 1.10,2013-02-09 21:44:00,
2013-02-09 16:59:00,32.8,14.0,30.04,West,274,12.0,-999.0,47,-99.99,,,0.06,weatherlink.com 1.10,2013-02-09 21:59:00,
2013-02-09 17:14:00,32.2,13.0,30.05,NW,325,14.0,-999.0,46,-99.99,,,0.06,weatherlink.com 1.10,2013-02-09 22:14:00,
2013-02-09 17:29:00,31.7,13.0,30.06,NW,325,4.0,-999.0,47,-99.99,,,0.06,weatherlink.com 1.10,2013-02-09 22:29:00,
2013-02-09 17:44:00,31.2,14.0,30.07,NW,315,1.0,-999.0,49,-99.99,,,0.06,weatherlink.com 1.10,2013-02-09 22:44:00,
2013-02-09 17:59:00,31.1,13.0,30.08,WNW,293,6.0,-999.0,47,-99.99,,,0.06,weatherlink.com 1.10,2013-02-09 22:59:00,
2013-02-09 18:14:00,30.5,13.0,30.09,NW,320,7.0,-999.0,49,-99.99,,,0.06,weatherlink.com 1.10,2013-02-09 23:14:00,
2013-02-09 18:29:00,30.1,14.0,30.10,NW,306,6.0,-999.0,52,-99.99,,,0.06,weatherlink.com 1.10,2013-02-09 23:29:00,
2013-02-09 18:44:00,29.6,14.0,30.11,WNW,289,6.0,-999.0,52,-99.99,,,0.06,weatherlink.com 1.10,2013-02-09 23:44:00,
2013-02-09 18:59:00,29.4,14.0,30.11,NW,317,8.0,-999.0,52,-99.99,,,0.06,weatherlink.com 1.10,2013-02-09 23:59:00,
2013-02-09 19:14:00,28.9,13.0,30.12,WSW,251,3.0,-999.0,51,-99.99,,,0.06,weatherlink.com 1.10,2013-02-10 00:14:00,
2013-02-09 19:29:00,28.5,13.0,30.12,WNW,282,4.0,-999.0,52,-99.99,,,0.06,weatherlink.com 1.10,2013-02-10 00:29:00,
2013-02-09 19:44:00,28.2,12.0,30.14,West,276,2.0,-999.0,51,-99.99,,,0.06,weatherlink.com 1.10,2013-02-10 00:44:00,
2013-02-09 19:59:00,27.8,12.0,30.15,WNW,296,4.0,-999.0,52,-99.99,,,0.06,weatherlink.com 1.10,2013-02-10 00:59:00,
2013-02-09 20:14:00,27.4,13.0,30.16,NW,312,9.0,-999.0,55,-99.99,,,0.06,weatherlink.com 1.10,2013-02-10 01:14:00,
2013-02-09 20:29:00,27.0,13.0,30.16,West,275,4.0,-999.0,56,-99.99,,,0.06,weatherlink.com 1.10,2013-02-10 01:29:00,
2013-02-09 20:44:00,26.6,13.0,30.18,West,275,9.0,-999.0,56,-99.99,,,0.06,weatherlink.com 1.10,2013-02-10 01:44:00,
2013-02-09 20:59:00,26.5,11.0,30.18,West,259,8.0,-999.0,53,-99.99,,,0.06,weatherlink.com 1.10,2013-02-10 01:59:00,
2013-02-09 21:14:00,26.2,12.0,30.19,West,275,9.0,-999.0,55,-99.99,,,0.06,weatherlink.com 1.10,2013-02-10 02:14:00,
2013-02-09 21:29:00,25.9,12.0,30.21,NW,306,2.0,-999.0,55,-99.99,,,0.06,weatherlink.com 1.10,2013-02-10 02:29:00,
2013-02-09 21:44:00,25.5,12.0,30.21,West,279,9.0,-999.0,56,-99.99,,,0.06,weatherlink.com 1.10,2013-02-10 02:44:00,
2013-02-09 21:59:00,25.1,11.0,30.21,WNW,300,11.0,-999.0,56,-99.99,,,0.06,weatherlink.com 1.10,2013-02-10 02:59:00,
2013-02-09 22:14:00,24.8,11.0,30.21,NW,314,5.0,-999.0,56,-99.99,,,0.06,weatherlink.com 1.10,2013-02-10 03:14:00,
2013-02-09 22:29:00,24.4,11.0,30.22,WNW,294,11.0,-999.0,57,-99.99,,,0.06,weatherlink.com 1.10,2013-02-10 03:29:00,
2013-02-09 22:44:00,24.0,11.0,30.22,NNW,329,5.0,-999.0,58,-99.99,,,0.06,weatherlink.com 1.10,2013-02-10 03:44:00,
2013-02-09 22:59:00,23.6,11.0,30.23,WNW,299,4.0,-999.0,59,-99.99,,,0.06,weatherlink.com 1.10,2013-02-10 03:59:00,
2013-02-09 23:14:00,23.3,11.0,30.23,West,263,7.0,-999.0,60,-99.99,,,0.06,weatherlink.com 1.10,2013-02-10 04:14:00,
2013-02-09 23:29:00,22.8,11.0,30.23,NNW,329,7.0,-999.0,62,-99.99,,,0.06,weatherlink.com 1.10,2013-02-10 04:29:00,
2013-02-09 23:44:00,22.4,11.0,30.24,West,265,2.0,-999.0,62,-99.99,,,0.06,weatherlink.com 1.10,2013-02-10 04:44:00,
2013-02-09 23:59:00,21.9,11.0,30.25,West,272,4.0,-999.0,63,-99.99,,,0.00,weatherlink.com 1.10,2013-02-10 04:59:00,